Tiempo atmosférico en la estación meteorológica de Oliva, València/Valencia (5 m.)



Fecha
DESCASC
Temp. máxima en grados centígrados (hora)
DESCASC
Temp. mínima en grados centígrados (hora)
DESCASC
Temp. media en grados centígrados
DESCASC
Racha de viento máxima en m/sg (hora)
DESCASC
Velocidad máxima media en intervalos de 10 minutos(hora)
DESCASC
Precipitaciones diarias en mm
DESCASC
Precipitaciones de 00:00 a 06:00 en mm
DESCASC
Precipitaciones de 06:00 a 12:00 en mm
DESCASC
Precipitaciones de 12:00 a 18:00 en mm
DESCASC
Precipitaciones de 18:00 a 24:00 en mm
DESCASC
31-03-2020 14.3 (16:20) 8.3 (08:20) 11.3 -- (--) -- (--) 10.6 8.3 2.3 0 0
29-03-2020 21.9 (18:00) 7 (00:00) 14.4 -- (--) -- (--) 0 0 0 0 0
28-03-2020 16.2 (14:40) 7.2 (00:00) 11.7 -- (--) -- (--) 0 0 0 0 0
27-03-2020 11.8 (15:10) 8.3 (00:00) 10.1 -- (--) -- (--) 4 2.5 0 1.5 0
26-03-2020 15.6 (14:40) 6.7 (00:00) 11.2 -- (--) -- (--) 0 0 0 0 0
25-03-2020 13.5 (00:00) 9.1 (00:00) 11.3 -- (--) -- (--) 9.5 0.1 8.5 0.9 0
24-03-2020 15 (00:10) 13.3 (00:00) 14.2 -- (--) -- (--) 1.7 0 1.3 0.4 0
23-03-2020 16 (15:40) 11.2 (00:00) 13.6 -- (--) -- (--) 15.3 4.4 0.1 1.4 9.4
22-03-2020 14.3 (13:20) 10.5 (03:10) 12.4 -- (--) -- (--) 19.7 5.7 0 2 12
21-03-2020 14.5 (00:10) 10.7 (00:00) 12.6 -- (--) -- (--) 13.7 0 2.9 1.6 9.2
20-03-2020 16.8 (12:40) 13.7 (00:00) 15.2 -- (--) -- (--) 0.8 0 0.5 0.3 0
19-03-2020 17 (15:30) 12.9 (00:00) 14.9 -- (--) -- (--) 0 0 0 0 0
18-03-2020 16.1 (12:50) 13.8 (00:00) 15 -- (--) -- (--) 0 0 0 0 0
17-03-2020 15 (17:50) 9.6 (00:00) 12.3 -- (--) -- (--) 12.9 8.4 3.2 1.2 0.1
16-03-2020 16.6 (10:20) 9.4 (00:00) 13 10 (23:30) 3.89 (15:20) 3.7 0.3 0 1.1 2.3
15-03-2020 18.5 (15:50) 10.9 (00:00) 14.7 11.11 (14:20) 6.11 (14:30) 0 0 0 0 0
14-03-2020 17.7 (17:50) 9.6 (00:00) 13.7 6.39 (17:20) 3.61 (17:20) 0 0 0 0 0
13-03-2020 17.1 (12:30) 11 (04:00) 14.1 6.67 (14:20) 3.89 (13:30) 0 0 0 0 0
12-03-2020 18.1 (13:10) 9.5 (00:00) 13.8 5.28 (20:50) 3.33 (20:30) 0 0 0 0 0
11-03-2020 20.3 (15:30) 9 (00:00) 14.6 5.56 (20:00) 3.33 (19:30) 0 0 0 0 0
10-03-2020 20.3 (18:40) 8.8 (00:00) 14.5 7.78 (16:50) 4.72 (16:50) 0 0 0 0 0
09-03-2020 21.9 (14:50) 11 (00:00) 16.4 7.5 (09:30) 4.17 (09:30) 0 0 0 0 0
08-03-2020 20.6 (11:40) 8.3 (00:00) 14.5 8.33 (21:50) 4.17 (22:00) 0 0 0 0 0
07-03-2020 18.5 (14:20) 8.9 (00:00) 13.7 11.39 (04:40) 6.67 (04:40) 0 0 0 0 0
06-03-2020 18.5 (13:20) 12.1 (00:00) 15.3 16.39 (09:40) 8.33 (09:40) 0 0 0 0 0
05-03-2020 25.8 (14:30) 14.4 (00:00) 20.1 -- (--) -- (--) 0 0 0 0 0
04-03-2020 24.7 (15:10) 16.3 (07:40) 20.5 -- (--) -- (--) 0 0 0 0 0

Gráficas

Temp. máximas Temp. mínimas Temp. medias Precipitaciones Rachas de viento máximas Velocidades máximas media en intervalos de 10 minutos

Datos horarios

Fecha y hora oficial Temperatura (ºC) Velocidad del viento (km/h) Dirección del viento Racha (km/h) Dirección de racha Precipitación (mm) Presión (hPa) Tendencia (hPa) Humedad (%)
2020-04-02 23:00:00 13.1 -- -- -- -- 0 -- -- --
2020-04-02 22:00:00 13.2 -- -- -- -- 0 -- -- --
2020-04-02 21:00:00 13.2 -- -- -- -- 0 -- -- --
2020-04-02 20:00:00 13.3 -- -- -- -- 0 -- -- --
2020-04-02 19:00:00 13.7 -- -- -- -- 0 -- -- --
2020-04-02 18:00:00 14.3 -- -- -- -- 0 -- -- --
2020-04-02 17:00:00 14.5 -- -- -- -- 0 -- -- --
2020-04-02 16:00:00 15.1 -- -- -- -- 0 -- -- --
2020-04-02 15:00:00 14.4 -- -- -- -- 0 -- -- --
2020-04-02 14:00:00 13.9 -- -- -- -- 0 -- -- --
2020-04-02 13:00:00 13.8 -- -- -- -- 0 -- -- --
2020-04-02 12:00:00 13.5 -- -- -- -- 0 -- -- --
2020-04-02 11:00:00 13.5 -- -- -- -- 0 -- -- --
2020-04-02 10:00:00 13.2 -- -- -- -- 0 -- -- --
2020-04-02 09:00:00 13 -- -- -- -- 0 -- -- --
2020-04-02 08:00:00 13 -- -- -- -- 0 -- -- --
2020-04-02 07:00:00 13 -- -- -- -- 0 -- -- --
2020-04-02 06:00:00 12.9 -- -- -- -- 0 -- -- --
2020-04-02 05:00:00 13 -- -- -- -- 0 -- -- --
2020-04-02 04:00:00 12.9 -- -- -- -- 0 -- -- --
2020-04-02 03:00:00 13.2 -- -- -- -- 0 -- -- --
2020-04-02 02:00:00 12.7 -- -- -- -- 0.6 -- -- --
2020-04-02 01:00:00 12.7 -- -- -- -- 0.1 -- -- --
2020-04-02 00:00:00 12.7 -- -- -- -- 0 -- -- --
2020-04-01 23:00:00 13.1 -- -- -- -- 3.6 -- -- --
2020-04-01 22:00:00 13.3 -- -- -- -- 4.5 -- -- --
2020-04-01 21:00:00 14 -- -- -- -- 1.2 -- -- --
2020-04-01 20:00:00 14.6 -- -- -- -- 0.1 -- -- --
2020-04-01 19:00:00 15.1 -- -- -- -- 0.3 -- -- --
2020-04-01 18:00:00 16 -- -- -- -- 0 -- -- --
2020-04-01 17:00:00 16.7 -- -- -- -- 0 -- -- --
2020-04-01 16:00:00 17 -- -- -- -- 0 -- -- --
2020-04-01 15:00:00 17.2 -- -- -- -- 0 -- -- --
2020-04-01 14:00:00 17.8 -- -- -- -- 0 -- -- --
2020-04-01 13:00:00 17.1 -- -- -- -- 0 -- -- --
2020-04-01 12:00:00 17.9 -- -- -- -- 0 -- -- --
2020-04-01 11:00:00 16.9 -- -- -- -- 0 -- -- --
2020-04-01 10:00:00 15.2 -- -- -- -- 0 -- -- --
2020-04-01 09:00:00 12.8 -- -- -- -- 0 -- -- --
2020-04-01 08:00:00 11.8 -- -- -- -- 0 -- -- --
2020-04-01 07:00:00 12 -- -- -- -- 0 -- -- --
2020-04-01 06:00:00 11.6 -- -- -- -- 0 -- -- --
2020-04-01 05:00:00 12 -- -- -- -- 0 -- -- --
2020-04-01 04:00:00 12.6 -- -- -- -- 0 -- -- --
2020-04-01 03:00:00 12.8 -- -- -- -- 0 -- -- --
2020-04-01 02:00:00 12.7 -- -- -- -- 0 -- -- --
2020-04-01 01:00:00 12.9 -- -- -- -- 0 -- -- --
2020-04-01 00:00:00 12.9 -- -- -- -- 0 -- -- --
2020-03-31 23:00:00 12.9 -- -- -- -- 0 -- -- --
2020-03-31 22:00:00 13 -- -- -- -- 0 -- -- --
2020-03-31 21:00:00 13 -- -- -- -- 0 -- -- --
2020-03-31 20:00:00 13.2 -- -- -- -- 0 -- -- --
2020-03-31 19:00:00 13.7 -- -- -- -- 0 -- -- --
2020-03-31 18:00:00 13.8 -- -- -- -- 0 -- -- --
2020-03-31 17:00:00 13.9 -- -- -- -- 0 -- -- --
2020-03-31 16:00:00 14 -- -- -- -- 0 -- -- --
2020-03-31 15:00:00 13.6 -- -- -- -- 0 -- -- --
2020-03-31 14:00:00 12.6 -- -- -- -- 0 -- -- --
2020-03-31 13:00:00 11.5 -- -- -- -- 0 -- -- --
2020-03-31 12:00:00 10.9 -- -- -- -- 0 -- -- --
2020-03-31 11:00:00 10 -- -- -- -- 1.2 -- -- --
2020-03-31 10:00:00 8.6 -- -- -- -- 0.6 -- -- --
2020-03-31 09:00:00 8.7 -- -- -- -- 0.4 -- -- --
2020-03-31 08:00:00 8.5 -- -- -- -- 0.1 -- -- --
2020-03-31 07:00:00 8.6 -- -- -- -- 0 -- -- --
2020-03-31 06:00:00 8.7 -- -- -- -- 0.1 -- -- --
2020-03-31 05:00:00 8.8 -- -- -- -- 0.5 -- -- --
2020-03-31 04:00:00 9 -- -- -- -- 0.6 -- -- --
2020-03-31 03:00:00 9.2 -- -- -- -- 2.6 -- -- --
2020-03-31 02:00:00 10.2 -- -- -- -- 3 -- -- --
2020-03-31 01:00:00 10.4 -- -- -- -- 1.5 -- -- --
2020-03-31 00:00:00 10.2 -- -- -- -- 1.1 -- -- --
2020-03-30 23:00:00 10.6 -- -- -- -- 0.5 -- -- --
2020-03-30 22:00:00 10.7 -- -- -- -- 0.1 -- -- --
2020-03-30 21:00:00 11.4 -- -- -- -- 0 -- -- --
2020-03-30 20:00:00 11.5 -- -- -- -- 0 -- -- --
2020-03-30 19:00:00 11.7 -- -- -- -- 0 -- -- --
2020-03-30 18:00:00 12.6 -- -- -- -- 0 -- -- --
2020-03-30 17:00:00 12.7 -- -- -- -- 0 -- -- --
2020-03-30 16:00:00 13.5 -- -- -- -- 0 -- -- --
2020-03-30 15:00:00 13.8 -- -- -- -- 0 -- -- --
2020-03-30 14:00:00 13.9 -- -- -- -- 0 -- -- --
2020-03-30 13:00:00 13.2 -- -- -- -- 0.1 -- -- --
2020-03-30 12:00:00 14.2 -- -- -- -- 0 -- -- --
2020-03-30 11:00:00 14.1 -- -- -- -- 0 -- -- --
2020-03-30 10:00:00 14.1 -- -- -- -- 0 -- -- --
2020-03-30 09:00:00 13.8 -- -- -- -- 0 -- -- --
2020-03-30 08:00:00 12.3 -- -- -- -- 0 -- -- --
2020-03-30 07:00:00 13.9 -- -- -- -- 0 -- -- --
2020-03-30 06:00:00 13.8 -- -- -- -- 0 -- -- --
2020-03-30 05:00:00 14.4 -- -- -- -- 0 -- -- --
2020-03-30 04:00:00 13.7 -- -- -- -- 0 -- -- --
2020-03-30 03:00:00 14.9 -- -- -- -- 0 -- -- --
2020-03-30 02:00:00 15.7 -- -- -- -- 0 -- -- --
2020-03-30 01:00:00 16.1 -- -- -- -- 0 -- -- --
2020-03-30 00:00:00 16.6 -- -- -- -- 0 -- -- --
2020-03-29 23:00:00 16.4 -- -- -- -- 0 -- -- --
2020-03-29 22:00:00 17 -- -- -- -- 0 -- -- --
2020-03-29 21:00:00 18.4 -- -- -- -- 0 -- -- --
2020-03-29 20:00:00 20.2 -- -- -- -- 0 -- -- --
2020-03-29 19:00:00 21.3 -- -- -- -- 0 -- -- --
2020-03-29 18:00:00 21.7 -- -- -- -- 0 -- -- --
2020-03-29 17:00:00 20.5 -- -- -- -- 0 -- -- --
2020-03-29 16:00:00 18 -- -- -- -- 0 -- -- --
2020-03-29 15:00:00 17.7 -- -- -- -- 0 -- -- --
2020-03-29 14:00:00 18 -- -- -- -- 0 -- -- --
2020-03-29 13:00:00 20.3 -- -- -- -- 0 -- -- --
2020-03-29 12:00:00 19.2 -- -- -- -- 0 -- -- --
2020-03-29 11:00:00 17.5 -- -- -- -- 0 -- -- --
2020-03-29 10:00:00 14.9 -- -- -- -- 0 -- -- --
2020-03-29 09:00:00 10.7 -- -- -- -- 0 -- -- --
2020-03-29 08:00:00 7.3 -- -- -- -- 0 -- -- --
2020-03-29 07:00:00 7.5 -- -- -- -- 0 -- -- --
2020-03-29 06:00:00 7.7 -- -- -- -- 0 -- -- --
2020-03-29 05:00:00 8.5 -- -- -- -- 0 -- -- --
2020-03-29 03:00:00 7.6 -- -- -- -- 0 -- -- --
2020-03-29 01:00:00 7.8 -- -- -- -- 0 -- -- --
2020-03-29 00:00:00 7.9 -- -- -- -- 0 -- -- --
2020-03-28 23:00:00 8.5 -- -- -- -- 0 -- -- --
2020-03-28 22:00:00 9.3 -- -- -- -- 0 -- -- --
2020-03-28 21:00:00 10.5 -- -- -- -- 0 -- -- --
2020-03-28 20:00:00 12.3 -- -- -- -- 0 -- -- --
2020-03-28 19:00:00 14.1 -- -- -- -- 0 -- -- --
2020-03-28 18:00:00 14.9 -- -- -- -- 0 -- -- --
2020-03-28 17:00:00 15.7 -- -- -- -- 0 -- -- --
2020-03-28 16:00:00 15.7 -- -- -- -- 0 -- -- --
2020-03-28 15:00:00 15.5 -- -- -- -- 0 -- -- --
2020-03-28 14:00:00 15.6 -- -- -- -- 0 -- -- --
2020-03-28 13:00:00 14.6 -- -- -- -- 0 -- -- --
2020-03-28 12:00:00 14.3 -- -- -- -- 0 -- -- --
2020-03-28 11:00:00 14 -- -- -- -- 0 -- -- --
2020-03-28 10:00:00 12.9 -- -- -- -- 0 -- -- --
2020-03-28 09:00:00 10.7 -- -- -- -- 0 -- -- --
2020-03-28 08:00:00 7.8 -- -- -- -- 0 -- -- --
2020-03-28 07:00:00 7.3 -- -- -- -- 0 -- -- --
2020-03-28 06:00:00 7.7 -- -- -- -- 0 -- -- --
2020-03-28 05:00:00 7.3 -- -- -- -- 0 -- -- --
2020-03-28 04:00:00 7.5 -- -- -- -- 0 -- -- --
2020-03-28 03:00:00 7.9 -- -- -- -- 0 -- -- --
2020-03-28 02:00:00 8.2 -- -- -- -- 0 -- -- --
2020-03-28 01:00:00 8.5 -- -- -- -- 0 -- -- --
2020-03-28 00:00:00 8.6 -- -- -- -- 0 -- -- --
2020-03-27 23:00:00 8.5 -- -- -- -- 0 -- -- --
2020-03-27 22:00:00 8.9 -- -- -- -- 0 -- -- --
2020-03-27 21:00:00 9.5 -- -- -- -- 0 -- -- --
2020-03-27 20:00:00 10.1 -- -- -- -- 0 -- -- --
2020-03-27 19:00:00 10.6 -- -- -- -- 0 -- -- --
2020-03-27 18:00:00 10.4 -- -- -- -- 0.1 -- -- --
2020-03-27 17:00:00 10.8 -- -- -- -- 0.1 -- -- --
2020-03-27 16:00:00 11.4 -- -- -- -- 0.5 -- -- --
2020-03-27 15:00:00 11.4 -- -- -- -- 0.1 -- -- --
2020-03-27 14:00:00 11.4 -- -- -- -- 0.1 -- -- --
2020-03-27 13:00:00 10.5 -- -- -- -- 0.6 -- -- --
2020-03-27 12:00:00 10.7 -- -- -- -- 0 -- -- --
2020-03-27 11:00:00 10.4 -- -- -- -- 0 -- -- --
2020-03-27 10:00:00 9.2 -- -- -- -- 0 -- -- --
2020-03-27 09:00:00 9.4 -- -- -- -- 0 -- -- --
2020-03-27 08:00:00 8.9 -- -- -- -- 0 -- -- --
2020-03-27 07:00:00 8.4 -- -- -- -- 0 -- -- --
2020-03-27 06:00:00 8.6 -- -- -- -- 0.1 -- -- --
2020-03-27 05:00:00 8.6 -- -- -- -- 0.2 -- -- --
2020-03-27 04:00:00 8.7 -- -- -- -- 2.1 -- -- --
2020-03-27 03:00:00 10.8 -- -- -- -- 0 -- -- --
2020-03-27 02:00:00 10.8 -- -- -- -- 0.1 -- -- --
2020-03-27 01:00:00 10.8 -- -- -- -- 0 -- -- --
2020-03-27 00:00:00 11.3 -- -- -- -- 0 -- -- --
2020-03-26 23:00:00 11.5 -- -- -- -- 0 -- -- --
2020-03-26 22:00:00 11.3 -- -- -- -- 0 -- -- --
2020-03-26 21:00:00 12 -- -- -- -- 0 -- -- --
2020-03-26 20:00:00 11.9 -- -- -- -- 0 -- -- --
2020-03-26 19:00:00 12.3 -- -- -- -- 0 -- -- --
2020-03-26 18:00:00 13.2 -- -- -- -- 0 -- -- --
2020-03-26 17:00:00 13.4 -- -- -- -- 0 -- -- --
2020-03-26 16:00:00 14.5 -- -- -- -- 0 -- -- --
2020-03-26 15:00:00 14.6 -- -- -- -- 0 -- -- --
2020-03-26 14:00:00 14.5 -- -- -- -- 0 -- -- --
2020-03-26 13:00:00 15 -- -- -- -- 0 -- -- --
2020-03-26 12:00:00 14.6 -- -- -- -- 0 -- -- --
2020-03-26 11:00:00 14 -- -- -- -- 0 -- -- --
2020-03-26 10:00:00 12.1 -- -- -- -- 0 -- -- --
2020-03-26 09:00:00 9.3 -- -- -- -- 0 -- -- --
2020-03-26 08:00:00 7.7 -- -- -- -- 0 -- -- --
2020-03-26 07:00:00 6.9 -- -- -- -- 0 -- -- --
2020-03-26 06:00:00 7.1 -- -- -- -- 0 -- -- --
2020-03-26 05:00:00 7.4 -- -- -- -- 0 -- -- --
2020-03-26 04:00:00 7.7 -- -- -- -- 0 -- -- --
2020-03-26 03:00:00 7.6 -- -- -- -- 0 -- -- --
2020-03-26 02:00:00 7.1 -- -- -- -- 0 -- -- --
2020-03-26 01:00:00 8.3 -- -- -- -- 0 -- -- --
2020-03-26 00:00:00 9.5 -- -- -- -- 0 -- -- --
2020-03-25 23:00:00 9.5 -- -- -- -- 0 -- -- --
2020-03-25 22:00:00 9.5 -- -- -- -- 0 -- -- --
2020-03-25 21:00:00 9.9 -- -- -- -- 0 -- -- --
2020-03-25 20:00:00 10.3 -- -- -- -- 0 -- -- --
2020-03-25 19:00:00 10.7 -- -- -- -- 0 -- -- --
2020-03-25 18:00:00 10.9 -- -- -- -- 0 -- -- --
2020-03-25 17:00:00 10.8 -- -- -- -- 0 -- -- --
2020-03-25 16:00:00 10.7 -- -- -- -- 0 -- -- --
2020-03-25 15:00:00 10.4 -- -- -- -- 0.2 -- -- --
2020-03-25 14:00:00 10.1 -- -- -- -- 0.5 -- -- --
2020-03-25 13:00:00 10.7 -- -- -- -- 0.2 -- -- --
2020-03-25 12:00:00 10.5 -- -- -- -- 0.2 -- -- --
2020-03-25 11:00:00 9.7 -- -- -- -- 0.3 -- -- --
2020-03-25 10:00:00 9.4 -- -- -- -- 0.9 -- -- --
2020-03-25 09:00:00 9.5 -- -- -- -- 7.1 -- -- --
2020-03-25 08:00:00 9.7 -- -- -- -- 0 -- -- --
2020-03-25 07:00:00 10.1 -- -- -- -- 0 -- -- --
2020-03-25 06:00:00 10 -- -- -- -- 0 -- -- --
2020-03-25 05:00:00 10.1 -- -- -- -- 0 -- -- --
2020-03-25 04:00:00 12.3 -- -- -- -- 0 -- -- --
2020-03-25 03:00:00 11.9 -- -- -- -- 0 -- -- --
2020-03-25 02:00:00 12 -- -- -- -- 0.1 -- -- --
2020-03-25 01:00:00 13.4 -- -- -- -- 0 -- -- --
2020-03-25 00:00:00 13.5 -- -- -- -- 0 -- -- --
2020-03-24 23:00:00 13.5 -- -- -- -- 0 -- -- --
2020-03-24 22:00:00 13.5 -- -- -- -- 0 -- -- --
2020-03-24 21:00:00 13.8 -- -- -- -- 0 -- -- --
2020-03-24 20:00:00 13.7 -- -- -- -- 0 -- -- --
2020-03-24 19:00:00 13.7 -- -- -- -- 0 -- -- --
2020-03-24 18:00:00 13.9 -- -- -- -- 0 -- -- --
2020-03-24 17:00:00 14 -- -- -- -- 0 -- -- --
2020-03-24 16:00:00 14.2 -- -- -- -- 0 -- -- --
2020-03-24 15:00:00 14.3 -- -- -- -- 0 -- -- --
2020-03-24 14:00:00 14.1 -- -- -- -- 0 -- -- --
2020-03-24 13:00:00 14.1 -- -- -- -- 0.4 -- -- --
2020-03-24 12:00:00 14.4 -- -- -- -- 0.1 -- -- --
2020-03-24 11:00:00 14.2 -- -- -- -- 0.1 -- -- --
2020-03-24 10:00:00 14.1 -- -- -- -- 0.9 -- -- --
2020-03-24 09:00:00 14.6 -- -- -- -- 0.2 -- -- --
2020-03-24 08:00:00 14.7 -- -- -- -- 0 -- -- --
2020-03-24 07:00:00 14.7 -- -- -- -- 0 -- -- --
2020-03-24 06:00:00 14.7 -- -- -- -- 0 -- -- --
2020-03-24 05:00:00 14.9 -- -- -- -- 0 -- -- --
2020-03-24 04:00:00 14.8 -- -- -- -- 0 -- -- --
2020-03-24 03:00:00 14.9 -- -- -- -- 0 -- -- --
2020-03-24 02:00:00 14.8 -- -- -- -- 0 -- -- --
2020-03-24 01:00:00 15 -- -- -- -- 0 -- -- --
2020-03-24 00:00:00 14.8 -- -- -- -- 0 -- -- --
2020-03-23 23:00:00 14.9 -- -- -- -- 0 -- -- --
2020-03-23 22:00:00 14.9 -- -- -- -- 0 -- -- --
2020-03-23 21:00:00 14.9 -- -- -- -- 0 -- -- --
2020-03-23 20:00:00 14.8 -- -- -- -- 0.1 -- -- --
2020-03-23 19:00:00 14.8 -- -- -- -- 9.3 -- -- --
2020-03-23 18:00:00 15.3 -- -- -- -- 0 -- -- --
2020-03-23 17:00:00 15.4 -- -- -- -- 0 -- -- --
2020-03-23 16:00:00 15.8 -- -- -- -- 0 -- -- --
2020-03-23 15:00:00 15.8 -- -- -- -- 0 -- -- --
2020-03-23 14:00:00 15.2 -- -- -- -- 1.4 -- -- --
2020-03-23 13:00:00 15.4 -- -- -- -- 0 -- -- --
2020-03-23 12:00:00 14.9 -- -- -- -- 0 -- -- --
2020-03-23 11:00:00 14.3 -- -- -- -- 0 -- -- --
2020-03-23 10:00:00 13.4 -- -- -- -- 0 -- -- --
2020-03-23 09:00:00 12.4 -- -- -- -- 0.1 -- -- --
2020-03-23 08:00:00 11.5 -- -- -- -- 0 -- -- --
2020-03-23 07:00:00 11.4 -- -- -- -- 0 -- -- --
2020-03-23 06:00:00 12.1 -- -- -- -- 1.6 -- -- --
2020-03-23 05:00:00 12 -- -- -- -- 2.8 -- -- --
2020-03-23 04:00:00 11.8 -- -- -- -- 0 -- -- --
2020-03-23 03:00:00 11.8 -- -- -- -- 0 -- -- --
2020-03-23 02:00:00 12 -- -- -- -- 0 -- -- --
2020-03-23 01:00:00 12.3 -- -- -- -- 0 -- -- --
2020-03-23 00:00:00 12.7 -- -- -- -- 0 -- -- --
2020-03-22 23:00:00 13.6 -- -- -- -- 0 -- -- --
2020-03-22 22:00:00 13.3 -- -- -- -- 4.2 -- -- --
2020-03-22 21:00:00 13.8 -- -- -- -- 1.1 -- -- --
2020-03-22 20:00:00 13.7 -- -- -- -- 5.2 -- -- --
2020-03-22 19:00:00 13.7 -- -- -- -- 1.5 -- -- --
2020-03-22 18:00:00 13.7 -- -- -- -- 0.1 -- -- --
2020-03-22 17:00:00 13.7 -- -- -- -- 0.1 -- -- --
2020-03-22 16:00:00 13.9 -- -- -- -- 0.6 -- -- --
2020-03-22 15:00:00 13.8 -- -- -- -- 1.1 -- -- --
2020-03-22 14:00:00 13.8 -- -- -- -- 0.1 -- -- --
2020-03-22 13:00:00 14.2 -- -- -- -- 0 -- -- --
2020-03-22 12:00:00 13.4 -- -- -- -- 0 -- -- --
2020-03-22 11:00:00 13.4 -- -- -- -- 0 -- -- --
2020-03-22 10:00:00 12.7 -- -- -- -- 0 -- -- --
2020-03-22 09:00:00 11.9 -- -- -- -- 0 -- -- --
2020-03-22 08:00:00 11.2 -- -- -- -- 0 -- -- --
2020-03-22 07:00:00 11 -- -- -- -- 0 -- -- --
2020-03-22 06:00:00 10.8 -- -- -- -- 0 -- -- --
2020-03-22 05:00:00 10.8 -- -- -- -- 0.1 -- -- --
2020-03-22 04:00:00 10.7 -- -- -- -- 0.9 -- -- --
2020-03-22 03:00:00 10.6 -- -- -- -- 4.1 -- -- --
2020-03-22 02:00:00 10.8 -- -- -- -- 0.2 -- -- --
2020-03-22 01:00:00 10.8 -- -- -- -- 0.4 -- -- --
2020-03-22 00:00:00 10.8 -- -- -- -- 2.5 -- -- --
2020-03-21 23:00:00 11 -- -- -- -- 4.8 -- -- --
2020-03-21 22:00:00 11.9 -- -- -- -- 1.9 -- -- --
2020-03-21 21:00:00 14.2 -- -- -- -- 0 -- -- --
2020-03-21 20:00:00 14.1 -- -- -- -- 0 -- -- --
2020-03-21 19:00:00 14.2 -- -- -- -- 0 -- -- --
2020-03-21 18:00:00 14.2 -- -- -- -- 0 -- -- --
2020-03-21 17:00:00 13.8 -- -- -- -- 0 -- -- --
2020-03-21 16:00:00 12.7 -- -- -- -- 0.2 -- -- --
2020-03-21 15:00:00 12.6 -- -- -- -- 0.7 -- -- --
2020-03-21 14:00:00 12.8 -- -- -- -- 0.3 -- -- --
2020-03-21 13:00:00 12.4 -- -- -- -- 0.4 -- -- --
2020-03-21 12:00:00 12.8 -- -- -- -- 1.3 -- -- --
2020-03-21 11:00:00 12.6 -- -- 18 Noroeste 1.4 -- -- --
2020-03-21 10:00:00 12.1 -- -- 75 Noroeste 0.2 -- -- --
2020-03-21 09:00:00 12.5 -- -- 73 Noroeste 0 -- -- --
2020-03-21 08:00:00 13.4 -- -- 26 Nordeste 0 -- -- --
2020-03-21 07:00:00 13.6 -- -- 24 Nordeste 0 -- -- --
2020-03-21 06:00:00 13.6 -- -- 32 Norte 0 -- -- --
2020-03-21 05:00:00 14 -- -- 43 Norte 0 -- -- --
2020-03-21 04:00:00 14 -- -- 19 Norte 0 -- -- --
2020-03-21 03:00:00 14.1 -- -- 20 Norte 0 -- -- --
2020-03-21 02:00:00 14.2 -- -- 19 Norte 0 -- -- --
2020-03-21 01:00:00 14.3 -- -- 178 Este 0 -- -- --
2020-03-21 00:00:00 14.4 -- -- 140 Nordeste 0 -- -- --
2020-03-20 23:00:00 14.4 -- -- 76 Nordeste 0 -- -- --
2020-03-20 22:00:00 14.5 -- -- 23 Nordeste 0 -- -- --
2020-03-20 21:00:00 14.6 -- -- 23 Nordeste 0 -- -- --
2020-03-20 20:00:00 14.6 -- -- 19 Nordeste 0 -- -- --
2020-03-20 19:00:00 14.7 -- -- 22 Nordeste 0 -- -- --
2020-03-20 18:00:00 14.9 -- -- 24 Norte 0 -- -- --
2020-03-20 17:00:00 15.2 -- -- 51 Norte 0 -- -- --
2020-03-20 16:00:00 15.8 -- -- 19 Norte 0 -- -- --
2020-03-20 15:00:00 15.2 -- -- 15 Nordeste 0.3 -- -- --
2020-03-20 14:00:00 15.2 -- -- 205 Este 0 -- -- --
2020-03-20 13:00:00 16.1 -- -- 309 Este 0 -- -- --
2020-03-20 12:00:00 15.1 -- -- 163 Este 0 -- -- --
2020-03-20 11:00:00 15.4 17 Nordeste 214 Este 0.1 -- -- --
2020-03-20 10:00:00 14.8 7 Nordeste 18 Este 0.1 -- -- --
2020-03-20 09:00:00 14.1 9 Nordeste 22 Nordeste 0.3 -- -- --
2020-03-20 08:00:00 14.1 14 Nordeste 24 Nordeste 0 -- -- --
2020-03-20 07:00:00 13.9 11 Nordeste 33 Nordeste 0 -- -- --
2020-03-20 06:00:00 13.9 10 Nordeste 19 Nordeste 0 -- -- --
2020-03-20 05:00:00 13.9 12 Nordeste 122 Nordeste 0 -- -- --
2020-03-20 04:00:00 13.9 10 Nordeste 59 Nordeste 0 -- -- --
2020-03-20 03:00:00 14.1 7 Nordeste 96 Nordeste 0 -- -- --
2020-03-20 02:00:00 14.3 12 Nordeste 21 Nordeste 0 -- -- --
2020-03-20 01:00:00 14.4 12 Nordeste 21 Este 0 -- -- --
2020-03-20 00:00:00 14.5 14 Nordeste 20 Nordeste 0 -- -- --
2020-03-19 23:00:00 14.7 0 Calma -- -- 0 -- -- --
2020-03-19 22:00:00 14.5 0 Calma -- -- 0 -- -- --
2020-03-19 21:00:00 14.7 0 Calma -- -- 0 -- -- --
2020-03-19 20:00:00 14.9 0 Calma -- -- 0 -- -- --
2020-03-19 19:00:00 15.2 0 Calma -- -- 0 -- -- --
2020-03-19 18:00:00 15.4 0 Calma -- -- 0 -- -- --
2020-03-19 17:00:00 15.6 0 Calma -- -- 0 -- -- --
2020-03-19 16:00:00 16.2 0 Calma -- -- 0 -- -- --
2020-03-19 15:00:00 16.5 0 Calma -- -- 0 -- -- --
2020-03-19 14:00:00 16.5 0 Calma -- -- 0 -- -- --
2020-03-19 13:00:00 15.2 0 Calma -- -- 0 -- -- --
2020-03-19 12:00:00 16 0 Calma -- -- 0 -- -- --
2020-03-19 11:00:00 15.5 0 Calma -- -- 0 -- -- --
2020-03-19 10:00:00 15.4 0 Calma -- -- 0 -- -- --
2020-03-19 09:00:00 14.5 0 Calma -- -- 0 -- -- --
2020-03-19 08:00:00 14.2 0 Calma -- -- 0 -- -- --
2020-03-19 07:00:00 14 0 Calma -- -- 0 -- -- --
2020-03-19 06:00:00 14 0 Calma -- -- 0 -- -- --
2020-03-19 05:00:00 13.9 0 Calma -- -- 0 -- -- --
2020-03-19 04:00:00 13.2 0 Calma -- -- 0 -- -- --
2020-03-19 03:00:00 13 0 Calma -- -- 0 -- -- --
2020-03-19 02:00:00 13.2 0 Calma -- -- 0 -- -- --
2020-03-19 01:00:00 13.3 0 Calma -- -- 0 -- -- --
2020-03-19 00:00:00 14 0 Calma -- -- 0 -- -- --
2020-03-18 23:00:00 14.1 0 Calma -- -- 0 -- -- --
2020-03-18 22:00:00 14 0 Calma -- -- 0 -- -- --
2020-03-18 21:00:00 14.2 0 Calma -- -- 0 -- -- --
2020-03-18 20:00:00 14.3 0 Calma -- -- 0 -- -- --
2020-03-18 19:00:00 14.7 0 Calma -- -- 0 -- -- --
2020-03-18 18:00:00 15 0 Calma -- -- 0 -- -- --
2020-03-18 17:00:00 15.1 0 Calma -- -- 0 -- -- --
2020-03-18 16:00:00 15.4 0 Calma -- -- 0 -- -- --
2020-03-18 15:00:00 15.5 0 Calma -- -- 0 -- -- --
2020-03-18 14:00:00 15.1 0 Calma -- -- 0 -- -- --
2020-03-18 13:00:00 15.5 0 Calma -- -- 0 -- -- --
2020-03-18 12:00:00 15.3 0 Calma -- -- 0 -- -- --
2020-03-18 11:00:00 15.1 0 Calma -- -- 0 -- -- --
2020-03-18 10:00:00 15.1 0 Calma -- -- 0 -- -- --
2020-03-18 09:00:00 14.5 0 Calma -- -- 0 -- -- --
2020-03-18 08:00:00 14.2 0 Calma -- -- 0 -- -- --
2020-03-18 07:00:00 14.3 0 Calma -- -- 0 -- -- --
2020-03-18 06:00:00 14.3 0 Calma -- -- 0 -- -- --
2020-03-18 05:00:00 14.3 0 Calma -- -- 0 -- -- --
2020-03-18 04:00:00 14.4 4 Nordeste 105 Nordeste 0 -- -- --
2020-03-18 03:00:00 14.5 0 Calma -- -- 0 -- -- --
2020-03-18 02:00:00 14.6 0 Calma -- -- 0 -- -- --
2020-03-18 01:00:00 14.5 0 Calma -- -- 0 -- -- --
2020-03-18 00:00:00 14.7 0 Calma -- -- 0 -- -- --
2020-03-17 23:00:00 14.8 0 Calma 174 Este 0 -- -- --
2020-03-17 22:00:00 14.8 11 Nordeste 127 Norte 0 -- -- --
2020-03-17 21:00:00 14.8 13 Nordeste 131 Nordeste 0 -- -- --
2020-03-17 20:00:00 14.8 13 Nordeste 50 Norte 0 -- -- --
2020-03-17 19:00:00 14.9 13 Nordeste 127 Nordeste 0.1 -- -- --
2020-03-17 18:00:00 14.9 14 Nordeste 100 Nordeste 0 -- -- --
2020-03-17 17:00:00 14.9 13 Nordeste 29 Nordeste 0.3 -- -- --
2020-03-17 16:00:00 13.5 9 Noroeste 57 Noroeste 0.7 -- -- --
2020-03-17 15:00:00 13.3 6 Noroeste 18 Noroeste 0.2 -- -- --
2020-03-17 14:00:00 13 10 Oeste 19 Noroeste 0 -- -- --
2020-03-17 13:00:00 12.4 8 Noroeste 14 Noroeste 0 -- -- --
2020-03-17 12:00:00 12.2 6 Noroeste 19 Noroeste 0.4 -- -- --
2020-03-17 11:00:00 11.4 5 Oeste 15 Oeste 2.4 -- -- --
2020-03-17 10:00:00 11.3 4 Noroeste 8 Oeste 0.3 -- -- --
2020-03-17 09:00:00 10.8 5 Noroeste 9 Noroeste 0.1 -- -- --
2020-03-17 08:00:00 -- 5 Oeste 11 Noroeste 0 -- -- --
2020-03-17 07:00:00 10.2 4 Noroeste 7 Norte 0 -- -- --
2020-03-17 06:00:00 10 4 Oeste 8 Noroeste 0.3 -- -- --
2020-03-17 05:00:00 10.2 0 Calma 6 Sudoeste 0.2 -- -- --
2020-03-17 04:00:00 9.6 5 Noroeste 10 Noroeste 1.9 -- -- --
2020-03-17 03:00:00 9.8 5 Oeste 8 Oeste 3 -- -- --
2020-03-17 02:00:00 10.1 4 Noroeste 6 Noroeste 2.3 -- -- --
2020-03-17 01:00:00 10.5 0 Calma 5 Noroeste 0.7 -- -- --
2020-03-17 00:00:00 10.2 0 Calma 36 Noroeste 0.6 -- -- --
2020-03-16 23:00:00 10.1 2 Oeste 11 Oeste 0.2 -- -- --
2020-03-16 22:00:00 9.7 8 Oeste 18 Noroeste 0 -- -- --
2020-03-16 21:00:00 9.4 7 Oeste 16 Oeste 0.9 -- -- --
2020-03-16 20:00:00 9.9 5 Oeste 13 Oeste 0 -- -- --
2020-03-16 19:00:00 10.1 6 Oeste 10 Noroeste 0.6 -- -- --
2020-03-16 18:00:00 10.2 5 Oeste 17 Noroeste 0.7 -- -- --
2020-03-16 17:00:00 10.7 8 Noroeste 19 Noroeste 0 -- -- --
2020-03-16 16:00:00 10.7 11 Noroeste 27 Oeste 0 -- -- --
2020-03-16 15:00:00 10.8 11 Oeste 26 Oeste 0 -- -- --
2020-03-16 14:00:00 10.9 12 Noroeste 28 Noroeste 0.4 -- -- --
2020-03-16 13:00:00 13.8 10 Noroeste 26 Norte 0 -- -- --
2020-03-16 12:00:00 16.3 8 Nordeste 13 Nordeste 0 -- -- --
2020-03-16 11:00:00 16 7 Nordeste 11 Nordeste 0 -- -- --
2020-03-16 10:00:00 15.5 5 Este 9 Nordeste 0 -- -- --
2020-03-16 09:00:00 14.1 3 Sudeste 5 Sudeste 0 -- -- --
2020-03-16 08:00:00 13.9 0 Calma 8 Sudeste 0 -- -- --
2020-03-16 07:00:00 13.3 0 Calma 6 Sur 0 -- -- --
2020-03-16 06:00:00 13.1 0 Calma 6 Sur 0 -- -- --
2020-03-16 05:00:00 13.2 0 Calma 3 Sudoeste 0.3 -- -- --
2020-03-16 04:00:00 13.2 0 Calma 4 Sudoeste 0 -- -- --
2020-03-16 03:00:00 12.9 3 Sudoeste 7 Sur 0 -- -- --
2020-03-16 02:00:00 13.9 2 Este 5 Oeste 0 -- -- --
2020-03-16 01:00:00 13.6 2 Sudoeste 9 Sur 0 -- -- --
2020-03-16 00:00:00 14 3 Sur 8 Sur 0 -- -- --
2020-03-15 23:00:00 13.4 0 Calma 8 Sudeste 0 -- -- --
2020-03-15 22:00:00 13.8 0 Calma 7 Sur 0 -- -- --
2020-03-15 21:00:00 14.8 0 Calma 21 Sur 0 -- -- --
2020-03-15 20:00:00 16.2 12 Sur 27 Sudeste 0 -- -- --
2020-03-15 19:00:00 16.9 13 Sudeste 29 Sudeste 0 -- -- --
2020-03-15 18:00:00 17.3 18 Sudeste 37 Sudeste 0 -- -- --
2020-03-15 17:00:00 18.3 15 Sudeste 30 Sudeste 0 -- -- --
2020-03-15 16:00:00 18.3 14 Sudeste 33 Este 0 -- -- --
2020-03-15 15:00:00 17.4 18 Este 40 Este 0 -- -- --
2020-03-15 14:00:00 17.1 19 Este 33 Este 0 -- -- --
2020-03-15 13:00:00 17.1 10 Este 23 Este 0 -- -- --
2020-03-15 12:00:00 17.2 10 Nordeste 15 Nordeste 0 -- -- --
2020-03-15 11:00:00 16.3 8 Nordeste 10 Nordeste 0 -- -- --
2020-03-15 10:00:00 15.9 4 Este 10 Este 0 -- -- --
2020-03-15 09:00:00 14.7 2 Sur 4 Sudoeste 0 -- -- --
2020-03-15 08:00:00 12 3 Sur 6 Sur 0 -- -- --
2020-03-15 07:00:00 11.3 3 Sur 5 Sur 0 -- -- --
2020-03-15 06:00:00 11.1 4 Sur 6 Sur 0 -- -- --
2020-03-15 05:00:00 11.6 2 Sur 4 Sur 0 -- -- --
2020-03-15 04:00:00 12 0 Calma -- -- 0 -- -- --
2020-03-15 03:00:00 12.2 0 Calma 5 Sur 0 -- -- --
2020-03-15 02:00:00 12.6 0 Calma 4 Oeste 0 -- -- --
2020-03-15 01:00:00 12.2 0 Calma 8 Norte 0 -- -- --
2020-03-15 00:00:00 12.4 3 Noroeste 7 Noroeste 0 -- -- --
2020-03-14 23:00:00 13 0 Calma 4 Sudoeste 0 -- -- --
2020-03-14 22:00:00 13.8 0 Calma 4 Oeste 0 -- -- --
2020-03-14 21:00:00 14.8 0 Calma 7 Sudeste 0 -- -- --
2020-03-14 20:00:00 15.8 2 Sur 13 Sudeste 0 -- -- --
2020-03-14 19:00:00 17 7 Sudeste 17 Este 0 -- -- --
2020-03-14 18:00:00 17.6 9 Sudeste 23 Este 0 -- -- --
2020-03-14 17:00:00 16.8 13 Este 22 Este 0 -- -- --
2020-03-14 16:00:00 16.6 9 Este 18 Este 0 -- -- --
2020-03-14 15:00:00 16.9 10 Este 20 Este 0 -- -- --
2020-03-14 14:00:00 17 9 Este 17 Este 0 -- -- --
2020-03-14 13:00:00 16.3 9 Este 15 Este 0 -- -- --
2020-03-14 12:00:00 17.3 6 Este 12 Este 0 -- -- --
2020-03-14 11:00:00 16.4 7 Nordeste 11 Este 0 -- -- --
2020-03-14 10:00:00 15.6 7 Este 12 Este 0 -- -- --
2020-03-14 09:00:00 14.3 0 Calma 5 Sudoeste 0 -- -- --
2020-03-14 08:00:00 10.3 0 Calma 6 Sur 0 -- -- --
2020-03-14 07:00:00 9.9 3 Oeste 5 Noroeste 0 -- -- --
2020-03-14 06:00:00 10.5 0 Calma 3 Sur 0 -- -- --
2020-03-14 05:00:00 10.8 0 Calma 4 Sudoeste 0 -- -- --
2020-03-14 04:00:00 11 3 Oeste 6 Oeste 0 -- -- --
2020-03-14 03:00:00 11.1 2 Oeste 5 Oeste 0 -- -- --
2020-03-14 02:00:00 11.8 3 Oeste 5 Noroeste 0 -- -- --
2020-03-14 01:00:00 12.4 3 Oeste 5 Oeste 0 -- -- --
2020-03-14 00:00:00 13.7 2 Oeste 5 Noroeste 0 -- -- --
2020-03-13 23:00:00 13.8 2 Noroeste 4 Oeste 0 -- -- --
2020-03-13 22:00:00 13.8 2 Oeste 7 Norte 0 -- -- --
2020-03-13 21:00:00 14.7 5 Norte 9 Norte 0 -- -- --
2020-03-13 20:00:00 14.6 4 Norte 10 Norte 0 -- -- --
2020-03-13 19:00:00 14.9 6 Norte 12 Norte 0 -- -- --
2020-03-13 18:00:00 15.3 7 Norte 14 Nordeste 0 -- -- --
2020-03-13 17:00:00 15.8 9 Norte 17 Norte 0 -- -- --
2020-03-13 16:00:00 16.4 10 Norte 19 Norte 0 -- -- --
2020-03-13 15:00:00 16 10 Norte 24 Norte 0 -- -- --
2020-03-13 14:00:00 15.5 14 Norte 23 Norte 0 -- -- --
2020-03-13 13:00:00 16.7 10 Norte 21 Norte 0 -- -- --
2020-03-13 12:00:00 16.4 10 Norte 21 Norte 0 -- -- --
2020-03-13 11:00:00 16 11 Norte 20 Norte 0 -- -- --
2020-03-13 10:00:00 15.2 11 Norte 22 Noroeste 0 -- -- --
2020-03-13 09:00:00 14.6 10 Noroeste 22 Norte 0 -- -- --
2020-03-13 08:00:00 13.6 8 Noroeste 16 Oeste 0 -- -- --
2020-03-13 07:00:00 13 6 Noroeste 19 Oeste 0 -- -- --
2020-03-13 06:00:00 12.3 9 Oeste 16 Oeste 0 -- -- --
2020-03-13 05:00:00 11.9 5 Oeste 12 Noroeste 0 -- -- --
2020-03-13 04:00:00 11.1 5 Oeste 9 Noroeste 0 -- -- --
2020-03-13 03:00:00 11.5 3 Oeste 8 Noroeste 0 -- -- --
2020-03-13 02:00:00 11.9 5 Noroeste 7 Noroeste 0 -- -- --
2020-03-13 01:00:00 13 0 Calma 9 Noroeste 0 -- -- --
2020-03-13 00:00:00 13.2 5 Noroeste 9 Noroeste 0 -- -- --
2020-03-12 23:00:00 13.5 2 Noroeste 7 Oeste 0 -- -- --
2020-03-12 22:00:00 14.2 5 Noroeste 17 Norte 0 -- -- --
2020-03-12 21:00:00 14.9 9 Noroeste 19 Norte 0 -- -- --
2020-03-12 20:00:00 15.9 8 Noroeste 15 Norte 0 -- -- --
2020-03-12 19:00:00 16.4 5 Noroeste 9 Norte 0 -- -- --
2020-03-12 18:00:00 17.1 4 Norte 8 Norte 0 -- -- --
2020-03-12 17:00:00 17.1 6 Norte 10 Norte 0 -- -- --
2020-03-12 16:00:00 17.4 6 Norte 10 Norte 0 -- -- --
2020-03-12 15:00:00 17.3 6 Nordeste 12 Nordeste 0 -- -- --
2020-03-12 14:00:00 17.8 6 Nordeste 12 Nordeste 0 -- -- --
2020-03-12 13:00:00 17.7 7 Nordeste 14 Nordeste 0 -- -- --
2020-03-12 12:00:00 16.7 9 Norte 15 Norte 0 -- -- --
2020-03-12 11:00:00 16.2 9 Norte 14 Norte 0 -- -- --
2020-03-12 10:00:00 15.9 8 Norte 14 Norte 0 -- -- --
2020-03-12 09:00:00 14.9 0 Calma 4 Norte 0 -- -- --
2020-03-12 08:00:00 10.4 0 Calma 5 Sudoeste 0 -- -- --
2020-03-12 07:00:00 9.7 2 Oeste 8 Oeste 0 -- -- --
2020-03-12 06:00:00 9.8 6 Oeste 8 Oeste 0 -- -- --
2020-03-12 05:00:00 10.8 2 Sur 5 Sur 0 -- -- --
2020-03-12 04:00:00 10.3 0 Calma 3 Sur 0 -- -- --
2020-03-12 03:00:00 10.8 0 Calma 6 Sur 0 -- -- --
2020-03-12 02:00:00 11.6 2 Sudoeste 6 Sur 0 -- -- --
2020-03-12 01:00:00 12.3 2 Sur 5 Sur 0 -- -- --
2020-03-12 00:00:00 13.2 0 Calma 6 Sur 0 -- -- --
2020-03-11 23:00:00 13.8 0 Calma 9 Noroeste 0 -- -- --
2020-03-11 22:00:00 13.9 4 Oeste 15 Noroeste 0 -- -- --
2020-03-11 21:00:00 15.1 8 Noroeste 19 Noroeste 0 -- -- --
2020-03-11 20:00:00 15.8 11 Noroeste 20 Norte 0 -- -- --
2020-03-11 19:00:00 16.8 7 Norte 15 Norte 0 -- -- --
2020-03-11 18:00:00 18.2 4 Norte 9 Norte 0 -- -- --
2020-03-11 17:00:00 18.9 6 Norte 9 Nordeste 0 -- -- --
2020-03-11 16:00:00 20 5 Nordeste 9 Este 0 -- -- --
2020-03-11 15:00:00 19.8 5 Nordeste 9 Nordeste 0 -- -- --
2020-03-11 14:00:00 19.2 5 Nordeste 10 Nordeste 0 -- -- --
2020-03-11 13:00:00 18.5 5 Nordeste 10 Nordeste 0 -- -- --
2020-03-11 12:00:00 18.8 5 Este 9 Este 0 -- -- --
2020-03-11 11:00:00 18.6 4 Nordeste 7 Nordeste 0 -- -- --
2020-03-11 10:00:00 17.5 0 Calma 5 Nordeste 0 -- -- --
2020-03-11 09:00:00 16 0 Calma -- -- 0 -- -- --
2020-03-11 08:00:00 9.6 0 Calma 6 Oeste 0 -- -- --
2020-03-11 07:00:00 9.2 0 Calma 6 Sudoeste 0 -- -- --
2020-03-11 06:00:00 9.8 3 Sur 5 Sur 0 -- -- --
2020-03-11 05:00:00 10.4 0 Calma 0 Calma 0 -- -- --
2020-03-11 04:00:00 10.6 0 Calma 6 Sudoeste 0 -- -- --
2020-03-11 03:00:00 12.1 4 Sudoeste 7 Sudoeste 0 -- -- --
2020-03-11 02:00:00 13.1 3 Sur 5 Sur 0 -- -- --
2020-03-11 01:00:00 11.8 0 Calma 3 Oeste 0 -- -- --
2020-03-11 00:00:00 12.8 0 Calma 7 Sudoeste 0 -- -- --
2020-03-10 23:00:00 14.7 0 Calma 9 Noroeste 0 -- -- --
2020-03-10 22:00:00 15.3 5 Noroeste 14 Noroeste 0 -- -- --
2020-03-10 21:00:00 16 2 Sur 7 Sur 0 -- -- --
2020-03-10 20:00:00 17.7 3 Sur 12 Sur 0 -- -- --
2020-03-10 19:00:00 19.4 5 Sudeste 13 Sudeste 0 -- -- --
2020-03-10 18:00:00 19.8 8 Sudeste 26 Sudeste 0 -- -- --
2020-03-10 17:00:00 19.4 15 Sudeste 28 Sudeste 0 -- -- --
2020-03-10 16:00:00 19.5 9 Sudeste 19 Sudeste 0 -- -- --
2020-03-10 15:00:00 18.4 7 Este 18 Sudeste 0 -- -- --
2020-03-10 14:00:00 18.2 11 Este 22 Este 0 -- -- --
2020-03-10 13:00:00 16.9 12 Este 23 Sudeste 0 -- -- --
2020-03-10 12:00:00 16.4 12 Sudeste 22 Este 0 -- -- --
2020-03-10 11:00:00 16.6 9 Este 17 Sudeste 0 -- -- --
2020-03-10 10:00:00 15.9 6 Este 10 Sudeste 0 -- -- --
2020-03-10 09:00:00 14.6 0 Calma 4 Oeste 0 -- -- --
2020-03-10 08:00:00 9.6 4 Noroeste 7 Oeste 0 -- -- --
2020-03-10 07:00:00 10.1 2 Oeste 8 Noroeste 0 -- -- --
2020-03-10 06:00:00 11 4 Oeste 18 Noroeste 0 -- -- --
2020-03-10 05:00:00 9.6 8 Noroeste 12 Oeste 0 -- -- --
2020-03-10 04:00:00 9.3 4 Oeste 9 Oeste 0 -- -- --
2020-03-10 03:00:00 9.8 5 Oeste 10 Noroeste 0 -- -- --
2020-03-10 02:00:00 9.6 3 Oeste 6 Oeste 0 -- -- --
2020-03-10 01:00:00 10.8 0 Calma 8 Oeste 0 -- -- --
2020-03-10 00:00:00 11.5 3 Oeste 7 Noroeste 0 -- -- --
2020-03-09 23:00:00 13.1 0 Calma 12 Este 0 -- -- --
2020-03-09 22:00:00 13.9 0 Calma 9 Nordeste 0 -- -- --
2020-03-09 21:00:00 14.5 3 Oeste 6 Oeste 0 -- -- --
2020-03-09 20:00:00 16.3 0 Calma 11 Este 0 -- -- --
2020-03-09 19:00:00 18.2 3 Oeste 6 Sur 0 -- -- --
2020-03-09 18:00:00 19.4 4 Sur 14 Este 0 -- -- --
2020-03-09 17:00:00 18 9 Sudeste 17 Sudeste 0 -- -- --
2020-03-09 16:00:00 17.5 10 Este 21 Este 0 -- -- --
2020-03-09 15:00:00 19.7 7 Norte 23 Noroeste 0 -- -- --
2020-03-09 14:00:00 19.9 9 Oeste 23 Oeste 0 -- -- --
2020-03-09 13:00:00 18.9 8 Norte 21 Oeste 0 -- -- --
2020-03-09 12:00:00 18.7 8 Noroeste 21 Oeste 0 -- -- --
2020-03-09 11:00:00 17.5 15 Oeste 27 Oeste 0 -- -- --
2020-03-09 10:00:00 16.6 12 Oeste 27 Oeste 0 -- -- --
2020-03-09 09:00:00 15.2 12 Oeste 23 Oeste 0 -- -- --
2020-03-09 08:00:00 14.8 12 Oeste 24 Oeste 0 -- -- --
2020-03-09 07:00:00 13.6 9 Oeste 19 Oeste 0 -- -- --
2020-03-09 06:00:00 14.2 10 Oeste 19 Oeste 0 -- -- --
2020-03-09 05:00:00 14.4 9 Oeste 21 Oeste 0 -- -- --
2020-03-09 04:00:00 15.1 7 Oeste 25 Oeste 0 -- -- --
2020-03-09 03:00:00 15.4 10 Oeste 20 Oeste 0 -- -- --
2020-03-09 02:00:00 12.5 9 Noroeste 16 Noroeste 0 -- -- --
2020-03-09 01:00:00 12.3 0 Calma 4 Sur 0 -- -- --
2020-03-09 00:00:00 14 0 Calma 15 Norte 0 -- -- --
2020-03-08 23:00:00 14.5 8 Noroeste 29 Norte 0 -- -- --
2020-03-08 22:00:00 14.9 15 Norte 30 Noroeste 0 -- -- --
2020-03-08 21:00:00 16.2 11 Norte 19 Norte 0 -- -- --
2020-03-08 20:00:00 17.5 0 Calma 7 Sudoeste 0 -- -- --
2020-03-08 19:00:00 18.5 4 Sur 15 Sudeste 0 -- -- --
2020-03-08 18:00:00 19.4 9 Sudeste 20 Este 0 -- -- --
2020-03-08 17:00:00 18.8 9 Este 17 Sudeste 0 -- -- --
2020-03-08 16:00:00 18.3 9 Este 19 Este 0 -- -- --
2020-03-08 15:00:00 18.1 9 Este 22 Este 0 -- -- --
2020-03-08 14:00:00 17.7 10 Este 20 Sudeste 0 -- -- --
2020-03-08 13:00:00 16.9 10 Este 19 Sudeste 0 -- -- --
2020-03-08 12:00:00 17.7 8 Este 24 Oeste 0 -- -- --
2020-03-08 11:00:00 18.9 13 Oeste 23 Oeste 0 -- -- --
2020-03-08 10:00:00 17.6 4 Oeste 13 Oeste 0 -- -- --
2020-03-08 09:00:00 14.2 4 Oeste 15 Noroeste 0 -- -- --
2020-03-08 08:00:00 11.2 7 Oeste 17 Oeste 0 -- -- --
2020-03-08 07:00:00 10 6 Oeste 13 Oeste 0 -- -- --
2020-03-08 06:00:00 8.5 0 Calma 7 Noroeste 0 -- -- --
2020-03-08 05:00:00 9.3 0 Calma 13 Noroeste 0 -- -- --
2020-03-08 04:00:00 9.3 0 Calma 10 Noroeste 0 -- -- --
2020-03-08 03:00:00 9.8 5 Noroeste 10 Oeste 0 -- -- --
2020-03-08 02:00:00 10.1 5 Oeste 12 Noroeste 0 -- -- --
2020-03-08 01:00:00 9.3 0 Calma -- -- 0 -- -- --
2020-03-08 00:00:00 8.9 0 Calma -- -- 0 -- -- --
2020-03-07 23:00:00 9.5 0 Calma -- -- 0 -- -- --
2020-03-07 22:00:00 10.4 0 Calma -- -- 0 -- -- --
2020-03-07 21:00:00 11.8 0 Calma 8 Sur 0 -- -- --
2020-03-07 20:00:00 13.9 3 Sur 21 Sudeste 0 -- -- --
2020-03-07 19:00:00 15.3 8 Sudeste 18 Este 0 -- -- --
2020-03-07 18:00:00 15.9 9 Sudeste 21 Sudeste 0 -- -- --
2020-03-07 17:00:00 16.7 8 Sudeste 14 Este 0 -- -- --
2020-03-07 16:00:00 17.7 6 Este 16 Nordeste 0 -- -- --
2020-03-07 15:00:00 18.3 8 Norte 30 Norte 0 -- -- --
2020-03-07 14:00:00 18.1 12 Norte 34 Noroeste 0 -- -- --
2020-03-07 13:00:00 17 18 Noroeste 38 Noroeste 0 -- -- --
2020-03-07 12:00:00 15.7 18 Noroeste 37 Noroeste 0 -- -- --
2020-03-07 11:00:00 14.6 17 Noroeste 39 Oeste 0 -- -- --
2020-03-07 10:00:00 13.8 19 Noroeste 34 Noroeste 0 -- -- --
2020-03-07 09:00:00 13.3 20 Noroeste 36 Noroeste 0 -- -- --
2020-03-07 08:00:00 11 19 Oeste 37 Oeste 0 -- -- --
2020-03-07 07:00:00 10.2 14 Oeste 32 Noroeste 0 -- -- --
2020-03-07 06:00:00 10.7 15 Oeste 35 Noroeste 0 -- -- --
2020-03-07 05:00:00 11.9 18 Noroeste 41 Noroeste 0 -- -- --
2020-03-07 04:00:00 11.4 8 Oeste 36 Noroeste 0 -- -- --
2020-03-07 03:00:00 12.1 14 Noroeste 35 Noroeste 0 -- -- --
2020-03-07 02:00:00 12.4 16 Noroeste 28 Noroeste 0 -- -- --
2020-03-07 01:00:00 12.8 16 Noroeste 33 Noroeste 0 -- -- --
2020-03-07 00:00:00 13.8 13 Noroeste 28 Noroeste 0 -- -- --
2020-03-06 23:00:00 14.3 14 Noroeste 30 Noroeste 0 -- -- --
2020-03-06 22:00:00 13.7 10 Noroeste 36 Noroeste 0 -- -- --
2020-03-06 21:00:00 13.6 12 Noroeste 26 Noroeste 0 -- -- --
2020-03-06 20:00:00 14 9 Noroeste 24 Noroeste 0 -- -- --
2020-03-06 19:00:00 13.2 4 Oeste 17 Noroeste 0 -- -- --
2020-03-06 18:00:00 14.5 5 Sudoeste 16 Nordeste 0 -- -- --
2020-03-06 17:00:00 14.4 12 Nordeste 31 Nordeste 0 -- -- --
2020-03-06 16:00:00 14.9 10 Nordeste 36 Noroeste 0 -- -- --
2020-03-06 15:00:00 17.7 19 Noroeste 41 Noroeste 0 -- -- --
2020-03-06 14:00:00 17.4 15 Noroeste 41 Noroeste 0 -- -- --
2020-03-06 13:00:00 18.3 17 Oeste 50 Noroeste 0 -- -- --
2020-03-06 12:00:00 17.6 25 Noroeste 58 Noroeste 0 -- -- --
2020-03-06 11:00:00 16.2 27 Noroeste 54 Noroeste 0 -- -- --
2020-03-06 10:00:00 15.2 24 Oeste 59 Oeste 0 -- -- --
2020-03-06 09:00:00 13.9 19 Oeste 45 Oeste 0 -- -- --
2020-03-06 08:00:00 13.2 22 Oeste 46 Oeste 0 -- -- --
2020-03-06 07:00:00 13.1 13 Oeste 29 Oeste 0 -- -- --
2020-03-06 06:00:00 13.2 10 Oeste 29 Oeste 0 -- -- --
2020-03-06 05:00:00 13.7 12 Oeste 27 Oeste 0 -- -- --
2020-03-06 04:00:00 14.9 17 Oeste 39 Oeste 0 -- -- --
2020-03-06 03:00:00 15.3 13 Oeste 31 Noroeste 0 -- -- --
2020-03-06 02:00:00 15.9 15 Oeste 38 Noroeste 0 -- -- --
2020-03-06 01:00:00 16.5 17 Oeste 42 Oeste 0 -- -- --
2020-03-06 00:00:00 16.5 13 Oeste 26 Oeste 0 -- -- --
2020-03-05 23:00:00 18.2 12 Noroeste 41 Oeste 0 -- -- --
2020-03-05 22:00:00 18.9 22 Noroeste 42 Oeste 0 -- -- --
2020-03-05 21:00:00 19.1 17 Noroeste 42 Oeste 0 -- -- --
2020-03-05 20:00:00 20.1 17 Noroeste 36 Noroeste 0 -- -- --
2020-03-05 19:00:00 20.8 17 Noroeste 49 Noroeste 0 -- -- --
2020-03-05 18:00:00 21.7 26 Oeste 65 Oeste 0 -- -- --
2020-03-05 17:00:00 21.2 24 Oeste 54 Oeste 0 -- -- --
2020-03-05 16:00:00 23.5 23 Oeste 60 Oeste 0 -- -- --
2020-03-05 15:00:00 25.5 17 Oeste 49 Noroeste 0 -- -- --
2020-03-05 14:00:00 23.9 19 Oeste 43 Oeste 0 -- -- --
2020-03-05 13:00:00 23.2 20 Oeste 48 Oeste 0 -- -- --
2020-03-05 12:00:00 22.5 19 Oeste 38 Oeste 0 -- -- --
2020-03-05 11:00:00 20.2 17 Oeste 37 Noroeste 0 -- -- --
2020-03-05 10:00:00 19.8 13 Oeste 31 Oeste 0 -- -- --
2020-03-05 09:00:00 18.4 0 Calma -- -- 0 -- -- --
2020-03-05 08:00:00 16.5 -- -- -- -- 0 -- -- --
2020-03-05 07:00:00 16.2 -- -- -- -- 0 -- -- --
2020-03-05 06:00:00 16.3 -- -- -- -- 0 -- -- --
2020-03-05 05:00:00 14.7 -- -- -- -- 0 -- -- --
2020-03-05 04:00:00 15.8 -- -- -- -- 0 -- -- --
2020-03-05 03:00:00 14.9 -- -- -- -- 0 -- -- --
2020-03-05 02:00:00 15.9 -- -- -- -- 0 -- -- --
2020-03-05 01:00:00 16.8 -- -- -- -- 0 -- -- --
2020-03-05 00:00:00 17.6 -- -- -- -- 0 -- -- --
2020-03-04 23:00:00 17.8 -- -- -- -- 0 -- -- --
2020-03-04 22:00:00 18.7 -- -- -- -- 0 -- -- --
2020-03-04 21:00:00 19 -- -- -- -- 0 -- -- --
2020-03-04 20:00:00 19.5 -- -- -- -- 0 -- -- --
2020-03-04 19:00:00 19.9 -- -- -- -- 0 -- -- --
2020-03-04 18:00:00 21.4 -- -- -- -- 0 -- -- --
2020-03-04 17:00:00 22.5 -- -- -- -- 0 -- -- --
2020-03-04 16:00:00 23 -- -- -- -- 0 -- -- --
2020-03-04 15:00:00 24.5 -- -- -- -- 0 -- -- --
2020-03-04 14:00:00 23.2 -- -- -- -- 0 -- -- --
2020-03-04 13:00:00 22.5 -- -- -- -- 0 -- -- --
2020-03-04 12:00:00 22.4 -- -- -- -- 0 -- -- --
2020-03-04 11:00:00 21 -- -- -- -- 0 -- -- --
2020-03-04 10:00:00 20.1 -- -- -- -- 0 -- -- --
2020-03-04 09:00:00 19.7 -- -- -- -- 0 -- -- --
2020-03-04 08:00:00 16.6 -- -- -- -- 0 -- -- --
2020-03-04 07:00:00 17.3 -- -- -- -- 0 -- -- --
2020-03-04 06:00:00 17.4 -- -- -- -- 0 -- -- --
2020-03-04 05:00:00 17.6 -- -- -- -- 0 -- -- --
2020-03-04 04:00:00 18.1 -- -- -- -- 0 -- -- --
2020-03-04 03:00:00 18.3 -- -- -- -- 0 -- -- --
2020-03-04 02:00:00 18.4 -- -- -- -- 0 -- -- --
2020-03-04 01:00:00 18.3 -- -- -- -- 0 -- -- --
2020-03-04 00:00:00 18.5 -- -- -- -- 0 -- -- --